[[{"header":{"parameterUnit":"m.s-1","parameterCategory":1,"la1":30.2992,"la2":30.254,"lo1":-89.0895,"lo2":-89.0443,"dy":0.0025,"dx":0.0025,"nx":19,"ny":19,"refTime":"2026-04-24T03:00:00:Z","depth":0,"parameterNumber":2,"parameterNumberName":"U-component_of_WINDS"},"data":[0,0,0,-4.527,-4.5271,-4.5319,-4.5319,-4.5396,-4.5396,0,0,0,0,0,0,0,0,0,0,0,-4.5264,-4.5265,-4.527,-4.5271,-4.5319,-4.5319,-4.5395,-4.5396,0,0,0,0,0,0,0,0,0,0,0,-4.5264,-4.5265,-4.5266,-4.5271,-4.5319,-4.5319,-4.5395,-4.5354,0,0,0,0,0,0,0,0,0,0,-4.5305,-4.5308,-4.5265,-4.5266,-4.5272,-4.5319,-4.5319,-4.5351,-4.5356,-4.538,0,-4.5404,0,-4.5401,-4.5402,-4.5403,0,0,0,-4.5265,-4.5304,-4.5309,-4.5266,-4.5272,-4.5319,-4.5296,-4.5354,-4.536,-4.5387,-4.5404,-4.5407,-4.5403,-4.5403,-4.5403,-4.5564,-4.5565,0,0,-4.5262,-4.5277,-4.5305,-4.5313,-4.5306,-4.5294,-4.5297,-4.5357,-4.5377,-4.5405,-4.5408,-4.5404,-4.5404,-4.5404,-4.5563,-4.5564,0,0,0,-4.5259,-4.5276,-4.5279,-4.531,-4.5318,-4.5296,-4.5299,-4.5375,-4.5375,-4.5409,-4.5405,-4.5404,-4.5405,-4.5562,-4.5564,-4.5631,0,0,0,-4.5257,-4.5274,-4.5279,-4.5289,-4.5317,-4.5347,-4.5316,-4.537,-4.5377,-4.5404,-4.5404,-4.5406,-4.5561,-4.5563,-4.5626,-4.5659,0,0,0,-4.5258,-4.5274,-4.5284,-4.5289,-4.5311,-4.5345,-4.5349,-4.5371,-4.5374,-4.5403,-4.5406,-4.556,-4.5562,-4.5622,-4.5652,-4.5705,0,0,0,-4.5264,-4.5342,-4.5285,-4.5372,-4.531,-4.5387,-4.5348,-4.5404,-4.5437,-4.5405,-4.5561,-4.5563,-4.5621,-4.5648,-4.5701,-4.5752,-4.5775,0,0,-4.5371,-4.5356,-4.5406,-4.5356,-4.5447,-4.5379,-4.548,-4.5494,-4.5483,-4.5538,-4.5542,-4.5628,-4.5652,-4.5705,-4.59,-4.5918,0,0,0,-4.5445,-4.548,-4.5501,-4.5533,-4.5548,-4.5562,-4.556,-4.5566,-4.5612,-4.5514,-4.5661,-4.5675,-4.5706,-4.5729,-4.5744,-4.5769,-4.5575,-4.5575,-4.5575,-4.5617,-4.56,-4.5681,-4.567,-4.5702,-4.57,-4.5724,-4.5732,-4.5704,-4.574,-4.5755,-4.5876,-4.5904,-4.5915,-4.5941,-4.5782,-4.5782,-4.5782,-4.5782,-4.5772,-4.5819,-4.5783,-4.5848,-4.583,-4.5885,-4.5888,-4.5866,-4.5915,-4.5862,-4.5888,-4.583,-4.5936,-4.5958,-4.5787,-4.5786,-4.5786,-4.5785,-4.5785,-4.5881,-4.5901,-4.5908,-4.5954,-4.5992,-4.5979,-4.6028,-4.6009,-4.5992,-4.6018,-4.6032,-4.6031,-4.6027,-4.6027,-4.6027,-4.6028,-4.6028,-4.6028,-4.6028,-4.5991,-4.5997,-4.604,-4.6064,-4.6084,-4.6107,-4.6109,-4.6127,-4.6143,-4.6126,-4.6126,-4.6094,-4.595,-4.5913,-4.6035,-4.6034,-4.6033,-4.6032,-4.6032,-4.6151,-4.6112,-4.6179,-4.6199,-4.6227,-4.6266,-4.6244,-4.6284,-4.6297,-4.6322,-4.6286,-4.6183,-4.6165,-4.6153,-4.6122,-4.629,-4.629,-4.629,-4.629,-4.6242,-4.6232,-4.6297,-4.633,-4.6361,-4.6348,-4.6425,-4.6429,-4.6426,-4.6434,-4.6407,-4.6366,-4.6354,-4.6343,-4.6326,-4.6297,-4.6507,-4.6507,-4.6507,-4.6339,-4.6332,-4.64,-4.6398,-4.642,-4.6438,-4.6511,-4.6551,-4.654,-4.6515,-4.6439,-4.643,-4.6363,-4.6342,-4.6312,-4.6287,-4.6233,0,0]},{"header":{"parameterUnit":"m.s-1","parameterCategory":1,"la1":30.2992,"la2":30.254,"lo1":-89.0895,"lo2":-89.0443,"dy":0.0025,"dx":0.0025,"nx":19,"ny":19,"refTime":"2026-04-24T03:00:00:Z","depth":0,"parameterNumber":3,"parameterNumberName":"V-component_of_WINDS"},"data":[0,0,0,3.274,3.2739,3.2705,3.2705,3.264,3.2639,0,0,0,0,0,0,0,0,0,0,0,3.274,3.2739,3.274,3.2739,3.2705,3.2705,3.264,3.2639,0,0,0,0,0,0,0,0,0,0,0,3.274,3.2739,3.2738,3.2739,3.2705,3.2705,3.264,3.2673,0,0,0,0,0,0,0,0,0,0,3.2709,3.27,3.274,3.2738,3.2739,3.2705,3.2705,3.2675,3.2671,3.2647,0,3.2626,0,3.2632,3.2634,3.2634,0,0,0,3.2746,3.2703,3.2704,3.2738,3.2738,3.2705,3.2723,3.2673,3.2668,3.2642,3.2625,3.2623,3.2631,3.2633,3.2633,3.248,3.2479,0,0,3.2748,3.2727,3.2707,3.27,3.2707,3.2724,3.2721,3.2671,3.265,3.2625,3.2622,3.263,3.2633,3.2632,3.2481,3.248,0,0,0,3.2749,3.2728,3.2731,3.2702,3.2698,3.2722,3.272,3.2652,3.2655,3.2621,3.2629,3.2632,3.2631,3.2482,3.2481,3.2411,0,0,0,3.275,3.2729,3.2731,3.2718,3.2699,3.2675,3.2702,3.2658,3.2653,3.2629,3.2632,3.2631,3.2484,3.2482,3.2415,3.238,0,0,0,3.2745,3.2729,3.2721,3.2717,3.2702,3.2677,3.2677,3.2658,3.2657,3.2634,3.263,3.2484,3.2482,3.2419,3.2387,3.2335,0,0,0,3.2734,3.2657,3.2719,3.2636,3.2702,3.2635,3.2677,3.2627,3.2598,3.2632,3.2483,3.2481,3.2421,3.2391,3.2339,3.2286,3.2263,0,0,3.2625,3.2643,3.2596,3.265,3.2567,3.2642,3.2547,3.2538,3.2553,3.2503,3.25,3.2414,3.2387,3.2335,3.2141,3.2122,0,0,0,3.2554,3.252,3.2502,3.2476,3.247,3.2462,3.2471,3.2468,3.2427,3.2524,3.2382,3.2367,3.2337,3.2313,3.2297,3.2272,3.2469,3.247,3.247,3.2368,3.2395,3.2319,3.2341,3.2315,3.2326,3.2307,3.2304,3.2336,3.2302,3.2286,3.2166,3.2137,3.2125,3.2099,3.2262,3.2262,3.2261,3.2261,3.2211,3.2166,3.2214,3.2157,3.2184,3.2135,3.2143,3.2167,3.2124,3.2179,3.2154,3.221,3.2104,3.2082,3.2256,3.2257,3.2258,3.2258,3.2259,3.2092,3.2075,3.2075,3.2041,3.2011,3.2036,3.1994,3.202,3.2043,3.2019,3.2005,3.2006,3.201,3.2011,3.201,3.201,3.201,3.2009,3.2009,3.1967,3.197,3.1933,3.1922,3.1909,3.1896,3.1907,3.1894,3.1886,3.1908,3.1908,3.1942,3.209,3.2125,3.2003,3.2004,3.2005,3.2005,3.2006,3.1796,3.184,3.1782,3.1769,3.1759,3.1727,3.1763,3.1734,3.1727,3.1705,3.1746,3.1851,3.1869,3.1882,3.1912,3.1741,3.1741,3.1741,3.1741,3.1695,3.1708,3.1656,3.1634,3.1616,3.1642,3.1574,3.1582,3.1597,3.1594,3.1622,3.1665,3.1677,3.1688,3.1705,3.1733,3.1521,3.1521,3.1521,3.159,3.1604,3.1542,3.1561,3.1555,3.1548,3.1485,3.1455,3.1481,3.1512,3.1592,3.1601,3.1669,3.169,3.1721,3.1747,3.1799,0,0]}]]